Wind_Speed
54 53 52 49 46 45 44 43 44 46 46 47 46 45 45 44 41 39 38 40 42 43 43 42 41 40 39 38 37 35 34 32 32 31 32 34 35 35 34 33 32 32 32 32 32 31 32 33 34 33 34 35 37 38 38 37 35 34 34 35 36 38 38 37 36 35 35 35 36 36 36 36 37 38 38 39 39 37 35 34 33 33 34 35 36
54 54 53 51 50 48 46 47 48 48 47 45 43 43 44 45 45 45 45 46 47 47 47 46 45 44 42 41 39 37 35 33 33 33 33 34 34 34 33 32 32 32 32 32 32 32 33 33 34 34 36 37 39 39 38 36 34 33 34 34 35 37 38 37 35 33 33 34 34 35 35 36 37 37 37 37 36 35 34 34 34 35 37 39 41
51 52 51 51 52 51 51 52 52 51 49 45 43 42 43 44 45 46 46 47 47 47 47 46 46 45 44 42 40 38 37 36 35 35 34 35 34 34 34 33 33 33 33 33 33 33 33 34 35 36 37 38 38 39 38 36 35 36 37 37 37 38 39 39 39 38 38 38 37 37 37 37 38 37 37 35 34 34 34 35 37 39 41 44 46
42 44 47 49 50 51 52 54 54 54 52 49 46 45 43 43 43 43 44 45 46 46 47 47 46 45 45 44 42 41 39 38 37 36 36 36 36 36 36 35 34 34 34 34 34 34 35 36 37 37 35 35 36 38 38 38 39 41 41 41 40 40 41 42 43 43 43 42 42 41 41 40 40 39 38 37 36 36 37 39 41 43 45 47 50
36 36 42 47 48 48 49 50 51 53 55 54 53 51 49 48 47 47 47 48 48 49 49 49 48 48 47 46 44 42 41 40 38 37 37 37 37 37 37 36 35 35 34 34 35 36 37 37 36 33 32 33 35 38 40 42 43 44 44 43 43 42 42 43 43 44 44 44 44 44 43 42 42 41 40 39 39 39 40 42 45 47 49 51 54
35 34 40 44 45 45 43 42 43 47 51 53 54 55 55 54 53 53 53 54 55 55 55 54 53 51 49 47 45 43 42 41 39 38 37 37 38 38 38 37 36 35 35 36 37 37 37 36 34 33 34 35 37 39 41 44 45 46 45 46 46 45 44 44 44 44 44 45 45 45 45 44 44 42 41 41 42 42 44 46 48 50 52 55 57
36 39 42 41 41 41 40 40 42 45 48 51 53 55 56 56 56 56 56 57 57 57 56 55 52 50 49 47 46 44 42 41 39 38 38 38 39 39 38 38 37 37 37 38 37 37 36 35 35 36 37 37 39 41 43 44 46 47 48 48 48 47 45 45 45 44 44 45 45 44 44 45 45 44 43 44 45 45 47 49 51 53 55 58 61
37 43 44 40 41 44 45 47 48 49 50 50 51 52 53 55 56 57 58 58 56 54 54 53 51 50 48 46 45 43 42 41 40 40 40 40 40 39 39 39 39 40 40 39 38 37 37 37 38 39 39 40 41 43 44 46 47 48 49 51 51 49 47 46 45 44 44 44 44 44 45 46 47 46 46 47 48 49 50 52 55 57 59 62 66
36 40 40 39 42 44 46 49 49 50 50 49 48 48 50 52 54 55 56 55 53 51 50 49 49 48 47 45 44 43 42 42 42 42 41 41 41 41 41 41 42 42 41 40 40 40 39 40 40 41 42 43 44 45 46 48 49 50 51 52 51 49 47 46 45 46 46 47 47 47 48 49 50 50 50 50 52 53 55 57 59 62 64 67 70
37 36 34 35 38 40 43 46 47 48 48 47 46 47 48 50 51 52 53 53 52 50 47 45 45 45 46 46 46 45 46 45 45 43 43 42 42 43 43 43 43 42 42 42 42 42 42 43 44 45 46 47 47 47 47 48 49 49 50 50 49 48 47 47 48 49 51 51 51 51 51 53 53 53 54 54 55 57 59 61 64 67 70 72 75
38 35 33 34 37 39 42 44 46 47 47 47 47 47 48 49 50 52 53 52 50 48 46 45 45 45 47 48 48 48 47 46 45 45 44 44 44 44 44 43 43 43 43 43 44 45 46 47 48 49 49 49 48 47 47 47 48 48 48 49 50 51 50 50 51 52 53 54 54 54 55 56 57 57 58 58 59 60 62 65 68 72 75 78 81
36 36 35 37 40 42 44 45 46 47 49 50 49 48 47 46 47 49 50 49 48 47 47 46 45 46 47 48 48 47 46 45 46 46 46 46 45 44 44 44 44 45 46 47 48 48 49 49 50 51 51 50 49 49 49 49 49 50 52 53 54 54 54 55 56 56 55 56 57 58 59 60 61 62 62 63 64 65 67 71 74 77 80 83 86
38 38 38 39 42 43 44 44 45 45 46 47 48 47 45 43 44 45 45 46 46 47 48 47 47 47 47 47 48 48 47 47 47 46 45 44 44 45 45 46 47 48 50 51 51 50 50 50 50 50 50 50 51 52 52 52 53 54 55 56 56 56 57 58 59 59 58 58 60 61 63 64 65 65 66 67 68 71 75 78 81 84 86 87 89
42 43 42 43 44 45 46 46 47 46 46 46 46 46 46 44 43 43 44 45 46 47 47 47 46 46 47 47 47 47 46 45 45 44 44 45 46 48 48 49 51 52 53 52 52 50 49 49 49 49 49 49 51 52 52 53 55 56 56 57 57 58 59 60 61 61 61 62 63 65 66 67 68 69 71 73 76 79 82 85 88 90 91 90 91
43 44 45 45 46 48 49 50 50 50 51 51 50 49 48 47 45 45 46 48 50 50 50 48 47 48 48 48 47 46 46 45 45 45 46 49 51 52 53 54 54 54 54 54 52 50 49 49 50 50 50 51 53 54 54 54 56 58 59 57 56 55 57 60 62 63 65 65 67 69 71 73 74 76 78 81 84 87 89 91 93 94 94 93 92
44 44 44 43 44 46 48 50 52 53 53 54 55 55 54 52 49 48 50 52 54 54 54 53 53 53 52 51 49 47 47 47 48 49 50 52 54 54 55 56 56 55 55 54 53 52 51 51 52 53 54 55 57 59 58 57 58 61 62 61 58 57 59 63 68 70 72 73 75 77 78 80 82 84 86 89 91 93 94 95 95 96 95 93 92
47 48 47 46 47 47 48 51 53 54 54 55 56 57 57 57 55 53 54 55 56 56 56 56 56 57 57 56 54 53 52 53 53 53 53 53 53 53 54 55 55 55 54 54 54 55 55 56 57 57 57 59 61 62 62 61 61 63 64 65 66 66 68 71 76 78 80 82 83 84 86 88 90 92 93 95 96 97 96 96 96 96 94 92 91
50 51 52 54 55 54 53 53 54 56 58 58 57 57 57 57 57 57 57 57 58 58 58 58 58 58 58 57 56 55 55 55 55 55 54 53 53 53 54 54 54 55 55 55 56 56 57 58 59 60 60 62 64 65 66 66 66 67 68 70 72 74 75 78 82 85 87 88 89 90 91 93 95 97 97 98 98 98 97 96 95 94 93 92 92
53 54 55 57 59 59 58 57 56 56 58 59 60 60 59 58 58 59 59 59 59 59 59 59 59 58 56 54 53 53 53 54 55 55 55 55 54 52 52 53 54 54 55 55 56 57 58 59 61 64 65 67 69 71 73 73 74 74 75 77 80 82 83 85 88 89 90 91 92 93 94 95 97 98 98 98 98 98 96 94 93 93 93 93 92
56 57 57 58 59 60 60 60 58 56 56 57 59 61 61 60 59 59 60 60 60 60 60 60 60 60 59 58 57 57 57 57 58 58 57 57 57 56 55 56 58 58 58 60 61 63 64 65 67 70 73 75 77 79 80 81 82 83 84 85 86 87 88 90 91 91 92 93 94 95 95 96 97 98 98 97 96 95 94 94 94 94 94 93 93
61 60 60 61 62 62 63 63 63 62 61 60 60 61 61 61 60 60 60 61 61 61 61 62 62 62 62 62 62 63 64 64 65 65 64 64 64 64 64 66 67 68 68 69 71 72 73 74 76 79 82 83 85 86 87 87 87 88 90 90 91 91 92 93 94 95 95 95 96 96 96 96 96 95 94 93 93 93 94 95 95 94 93 94 94
64 64 64 64 65 65 66 67 68 68 69 68 66 65 65 64 63 63 63 63 63 63 64 64 65 65 66 67 68 69 70 70 70 70 69 69 69 70 71 73 75 76 76 76 78 79 80 81 82 84 86 88 89 90 90 90 90 91 92 94 94 95 95 95 95 96 96 96 95 94 93 93 92 91 91 91 91 93 96 96 94 94 94 94 95
65 64 64 65 67 68 68 68 68 69 70 71 71 71 72 72 71 70 70 69 69 70 70 71 72 72 73 73 74 74 74 74 74 74 74 74 74 75 75 77 79 81 81 82 82 83 83 83 84 86 88 90 92 93 94 94 94 95 96 96 97 97 97 96 95 94 94 93 92 91 91 92 92 93 92 90 90 94 97 96 94 96 97 98 98
70 67 65 65 66 68 70 70 70 69 69 70 70 71 72 72 73 74 75 75 76 76 77 77 78 78 78 78 78 79 78 78 79 79 79 79 78 78 79 79 81 82 83 83 84 84 86 87 88 90 92 93 94 95 96 97 97 98 98 98 97 96 94 92 91 91 91 91 92 92 93 94 94 95 94 92 91 96 100 98 98 100 101 101 102
76 74 72 70 68 69 70 71 72 73 73 73 73 72 72 71 71 72 73 74 75 76 77 77 77 77 77 77 77 77 77 77 77 77 78 78 78 79 79 80 81 83 85 86 88 89 91 92 93 93 93 94 95 96 97 98 98 98 98 97 95 93 92 92 92 92 92 94 95 96 96 96 96 96 98 98 98 99 100 101 102 103 103 102 102
77 78 78 77 75 74 73 73 73 74 75 76 77 77 77 77 77 77 77 77 77 77 77 77 77 77 76 76 76 76 77 77 78 79 80 81 81 82 84 85 87 88 90 91 92 93 93 93 93 93 92 93 94 95 96 97 97 96 95 95 94 94 94 95 96 97 98 99 100 101 101 101 100 101 103 104 103 101 101 102 103 102 101 101 101
80 81 81 81 80 80 79 78 78 79 79 79 80 81 81 82 82 83 83 83 83 83 83 83 83 83 83 83 83 83 83 84 85 86 87 88 89 90 91 92 93 94 94 94 94 94 94 94 94 93 92 92 93 94 94 95 95 95 95 96 97 98 99 100 101 102 104 105 105 106 105 104 104 104 105 106 105 103 103 103 102 101 100 100 100
83 84 84 85 85 85 85 84 84 84 85 85 85 85 85 85 86 86 87 87 88 88 88 89 89 89 89 89 90 90 90 91 92 93 94 95 96 96 97 97 97 97 96 95 94 92 91 91 91 90 90 91 91 93 94 95 96 97 99 100 101 103 103 104 105 107 108 108 108 108 108 107 107 107 107 107 105 104 103 102 101 100 99 99 98
83 84 85 86 87 88 89 89 89 89 90 90 90 90 90 90 90 90 91 91 91 92 92 92 93 94 94 94 95 95 96 96 97 98 98 98 98 98 97 96 95 93 91 89 88 87 87 88 89 90 91 92 94 95 97 99 100 102 104 105 107 107 107 107 108 110 112 112 111 111 110 109 109 108 108 107 105 103 103 102 100 99 98 96 95
85 85 86 86 87 88 89 90 91 91 92 92 92 92 92 93 93 94 94 94 94 95 95 96 96 97 97 97 98 98 97 97 97 97 97 96 95 94 92 91 90 89 88 87 87 88 89 90 92 94 95 97 99 100 102 104 105 107 109 110 111 112 111 110 111 112 114 113 113 113 112 111 110 108 107 106 104 102 100 99 97 95 93 92 90
89 89 89 89 89 89 90 91 91 92 92 93 93 94 94 94 95 95 96 96 96 97 98 98 98 99 99 99 98 98 97 95 94 94 94 93 92 91 90 90 90 90 90 90 91 92 93 95 97 98 100 101 103 105 107 108 109 111 112 113 113 114 113 112 112 113 114 113 112 112 111 110 108 107 105 103 100 97 95 93 91 89 88 87 86
92 93 93 93 93 93 93 94 94 94 95 95 95 96 96 96 97 97 98 98 98 98 98 98 97 97 96 96 95 93 92 92 91 92 92 92 92 92 93 93 94 94 95 96 97 98 99 100 102 103 104 105 106 108 109 110 111 112 113 113 114 114 113 112 112 113 112 111 110 109 108 106 105 102 99 97 94 92 90 87 85 83 83 83 83
93 94 95 96 96 96 97 97 98 98 98 98 98 98 98 98 98 99 99 99 99 98 98 97 96 95 94 94 93 92 92 91 92 92 93 94 95 96 96 97 98 100 101 102 103 104 104 105 106 107 107 108 109 110 112 113 113 114 114 115 115 115 114 113 112 111 109 107 106 104 102 100 98 95 92 90 89 87 85 83 81 79 78 79 78
91 92 93 94 96 96 97 98 98 99 99 99 99 99 99 99 99 99 99 99 98 98 97 97 96 96 95 95 95 95 95 95 95 96 97 97 98 99 100 101 103 104 106 107 108 109 109 110 110 111 111 112 112 113 114 115 115 115 115 115 114 113 111 109 108 105 103 102 100 98 95 93 90 88 86 85 84 82 81 79 77 75 74 74 74
87 89 90 91 92 93 94 95 96 96 96 97 97 97 97 97 98 97 97 97 97 97 97 97 97 97 97 97 98 98 98 99 99 100 101 102 103 104 105 106 107 109 110 111 111 112 112 113 114 114 114 114 115 115 115 116 115 114 113 111 109 107 105 103 101 98 96 95 93 90 88 86 83 81 79 78 78 76 75 74 72 71 70 69 69
85 86 87 88 89 90 90 91 92 93 93 93 94 94 94 95 95 95 95 95 96 96 96 97 98 98 98 99 100 101 102 102 103 104 105 106 107 108 109 110 111 112 112 113 113 114 114 115 115 115 116 115 115 114 113 112 110 108 107 105 103 101 99 97 94 92 89 88 85 83 81 79 77 74 72 72 71 70 69 68 67 65 64 63 63
87 87 88 88 88 89 89 90 91 91 92 92 92 93 93 94 94 95 95 96 96 97 97 98 99 99 100 101 101 102 103 104 105 106 107 108 109 110 110 111 112 112 113 114 114 115 115 115 115 115 114 113 112 110 108 107 105 104 102 100 98 96 93 91 88 85 83 80 78 76 74 73 71 69 67 66 65 64 63 62 61 60 58 58 58
90 90 90 90 90 90 91 91 92 92 92 92 93 93 94 95 95 96 96 97 98 98 99 99 100 101 101 102 103 104 104 105 106 107 108 109 110 111 112 112 113 113 114 114 115 115 115 114 113 112 110 108 107 106 105 104 103 100 98 95 92 89 87 84 81 78 75 73 71 69 68 67 66 64 63 61 60 59 57 56 55 55 55 55 55
91 92 92 92 92 92 93 93 94 94 94 94 94 95 95 96 96 97 98 98 99 99 100 101 101 102 103 103 104 105 106 107 108 109 110 111 112 112 113 113 114 114 114 113 112 112 111 110 109 108 106 105 104 103 102 99 97 93 90 87 85 82 79 76 74 71 69 67 66 64 63 63 61 60 59 58 56 55 53 52 52 52 52 52 52
92 93 93 94 94 94 95 95 96 96 96 97 97 97 98 98 98 99 100 100 101 101 102 103 103 104 105 106 107 108 109 109 110 111 112 113 113 113 113 113 113 112 111 110 109 108 108 107 106 105 103 102 100 97 95 92 88 85 82 79 77 74 72 70 69 67 65 63 62 61 60 59 58 57 56 55 53 51 49 49 50 50 49 49 50
93 94 94 94 95 95 96 96 97 97 98 98 98 99 99 100 100 101 101 102 102 103 104 104 105 106 107 108 109 109 110 110 111 112 112 112 112 112 112 111 110 110 109 108 108 107 105 103 100 98 96 94 92 89 86 83 79 76 74 72 71 69 68 66 65 63 62 61 60 58 57 56 55 54 53 52 51 49 47 47 47 47 48 48 48
94 94 95 95 95 96 96 97 97 98 98 99 99 99 100 100 100 101 102 102 103 104 104 105 106 107 107 108 108 109 109 110 110 110 110 110 110 110 110 109 109 108 106 105 103 100 96 93 91 89 87 85 82 80 77 74 71 69 68 67 66 65 63 62 61 60 58 58 57 55 54 53 52 52 51 50 49 48 46 45 45 45 46 46 46
93 94 95 96 96 97 97 98 99 99 99 99 100 100 100 101 101 102 102 103 103 104 104 105 105 106 106 107 107 107 107 108 108 108 108 107 107 106 105 104 102 100 98 96 93 89 86 84 82 80 78 75 74 72 70 68 66 65 64 63 62 60 59 59 58 56 55 54 53 52 51 50 50 49 49 48 47 46 45 44 44 45 45 44 44
90 91 92 93 94 95 96 97 98 99 99 100 100 100 100 101 102 102 102 103 103 103 104 104 104 104 104 105 105 105 104 104 103 102 101 100 99 97 95 93 91 90 88 86 83 81 78 75 73 71 70 68 67 66 65 63 62 61 60 59 57 56 55 54 54 53 52 51 50 50 49 48 48 47 47 47 46 45 44 44 44 44 44 43 43
87 87 88 89 90 91 92 92 93 94 95 96 96 97 97 98 98 99 99 99 99 100 100 100 100 100 100 99 99 98 97 96 95 93 92 90 89 87 85 84 83 82 80 77 75 73 71 69 67 66 65 64 62 61 60 59 58 57 57 55 54 52 51 50 50 50 49 48 48 47 47 46 46 46 46 45 45 44 43 43 43 43 42 42 41
84 85 85 86 86 87 88 88 89 90 90 91 91 92 92 93 93 93 94 94 94 94 94 94 94 93 93 92 91 90 89 87 86 85 83 82 80 78 77 76 75 73 71 70 68 67 65 64 63 62 61 60 58 57 56 56 55 55 54 53 51 50 49 47 47 47 47 47 46 45 45 44 45 45 45 44 43 43 42 42 41 41 40 40 39
79 80 82 82 83 84 85 85 86 86 87 87 88 88 89 89 89 89 89 89 89 89 89 88 87 87 86 85 84 82 81 80 79 77 76 74 73 71 70 69 68 66 65 64 63 62 61 60 59 59 58 57 55 54 54 53 52 51 51 50 49 48 47 46 45 44 44 44 44 44 43 43 43 43 43 43 42 41 40 40 39 39 38 38 37
73 75 76 78 79 80 81 82 83 83 84 84 85 85 85 85 85 85 85 85 84 84 83 82 82 81 79 78 77 76 74 73 72 70 69 67 66 65 65 63 62 60 60 60 59 58 57 57 56 55 55 54 52 51 51 50 49 48 47 47 47 46 45 44 43 42 42 42 42 42 42 42 41 42 41 41 40 39 39 38 38 37 36 36 35
68 70 71 72 74 75 76 77 78 78 79 79 80 80 80 80 80 80 80 79 78 78 77 76 75 74 73 72 71 69 68 66 65 63 62 62 61 61 61 59 57 56 56 55 55 55 54 54 53 53 52 51 50 49 48 47 47 46 45 44 44 43 43 42 42 41 40 40 40 40 40 40 40 40 39 39 38 38 37 36 36 36 35 35 35
64 65 66 67 68 69 69 70 71 72 73 73 74 74 74 74 74 73 73 73 72 71 71 70 69 68 67 66 65 63 62 61 59 58 58 58 58 58 57 55 53 52 52 51 51 51 52 52 51 51 50 49 48 47 46 45 44 43 43 42 42 41 41 40 40 40 39 39 39 39 39 38 38 38 37 37 36 36 35 35 35 34 34 34 34
59 60 61 62 62 63 64 64 65 66 66 67 68 68 68 68 68 68 67 67 66 66 65 65 64 63 62 61 60 59 57 56 55 55 55 55 56 55 54 52 50 49 49 48 48 48 49 49 49 49 48 47 46 45 44 43 43 42 42 41 40 40 39 39 39 39 39 38 38 37 37 37 36 36 35 35 35 34 34 34 33 33 33 33 34
Wind_Direction
226 225 223 225 229 232 234 238 243 248 252 253 253 253 254 255 257 260 264 267 270 274 277 279 281 282 283 283 284 284 284 284 285 285 282 277 270 266 266 266 266 266 265 265 266 266 266 267 267 267 268 270 270 269 267 266 267 272 276 279 279 277 274 273 273 275 276 277 278 278 278 278 277 277 277 278 278 277 275 277 281 285 289 293 298
228 228 228 228 231 233 235 239 243 247 251 255 256 255 255 255 256 259 264 268 270 272 274 276 278 280 281 281 281 282 282 282 283 284 284 282 276 270 269 270 270 271 270 269 268 267 267 268 269 271 273 275 275 272 268 266 270 276 281 283 283 281 277 275 275 277 279 280 280 279 278 277 277 277 277 278 278 278 279 283 289 295 299 302 305
230 232 231 232 233 235 238 241 245 247 251 254 255 255 256 257 259 261 264 267 268 270 272 274 276 278 280 280 280 281 281 281 283 283 283 281 277 272 273 275 277 277 275 273 272 271 270 270 272 275 277 277 277 273 268 266 272 279 283 283 283 283 281 278 278 280 282 283 282 282 280 278 278 278 279 279 280 283 287 292 297 301 303 306 308
230 232 232 232 234 237 239 242 245 248 251 252 254 255 257 258 260 262 264 265 267 269 270 273 275 278 279 279 280 281 281 282 282 281 281 279 277 276 277 280 281 279 277 276 276 275 274 274 276 277 277 278 278 274 269 269 275 281 284 284 285 284 282 280 280 281 282 283 283 284 283 282 282 281 281 282 285 290 294 298 300 302 304 306 308
227 231 233 233 233 236 240 244 248 251 252 253 255 257 259 260 262 264 265 266 267 269 271 273 276 278 279 279 280 280 280 280 280 279 278 278 278 279 280 281 281 279 277 277 278 278 278 277 276 276 278 280 279 277 274 275 278 282 283 284 286 285 283 281 280 280 281 282 283 284 284 285 285 285 285 287 290 295 298 299 300 301 303 304 305
224 228 233 233 232 234 239 243 246 249 250 252 254 256 258 261 263 264 265 267 269 271 273 275 277 278 278 279 279 279 278 278 278 278 277 277 278 280 281 281 279 277 276 277 279 280 279 278 276 277 280 280 278 277 277 277 279 281 282 284 286 285 283 281 280 279 280 281 282 284 285 285 287 288 290 293 295 296 297 298 298 299 300 301 302
222 226 229 231 233 234 234 234 237 243 248 251 253 255 256 259 261 264 265 267 269 272 273 275 277 277 277 277 277 275 275 275 276 276 276 277 278 279 279 279 277 275 275 278 280 280 279 278 278 280 282 281 279 278 278 279 281 281 283 285 286 285 283 282 281 280 281 282 283 284 286 287 288 291 294 296 295 295 295 295 295 296 297 298 299
221 229 230 231 233 233 234 236 239 244 250 253 255 256 257 258 260 262 264 267 269 272 274 276 277 277 276 275 273 272 272 273 273 275 276 277 277 277 276 275 274 274 276 279 281 281 281 281 282 283 284 283 282 280 281 282 284 284 284 286 286 285 283 282 282 282 284 285 287 289 291 292 294 296 297 296 294 294 294 293 293 294 295 296 298
221 233 234 236 239 238 239 241 243 247 250 252 254 255 256 257 259 261 263 266 268 271 274 274 274 274 272 271 270 269 270 271 273 274 275 276 275 275 274 274 275 277 279 281 282 283 284 284 284 284 285 286 286 285 285 285 285 285 285 285 284 284 285 286 287 289 292 293 295 296 297 297 298 298 296 294 293 293 294 293 293 294 295 296 297
222 230 232 237 242 243 243 244 247 249 251 252 253 253 255 256 258 261 263 264 266 268 268 268 267 268 268 268 267 267 269 271 274 274 275 276 275 274 275 276 278 280 281 283 284 285 285 285 285 286 287 288 288 287 286 285 285 285 285 285 287 290 292 292 291 292 295 296 297 297 297 297 298 297 295 294 292 292 292 291 292 293 295 296 298
222 226 226 231 236 241 244 246 248 249 251 253 255 256 257 257 258 259 260 261 262 263 263 263 263 263 264 265 266 267 269 271 273 273 276 278 279 279 280 281 282 283 284 285 286 287 287 286 286 287 289 289 288 287 287 287 288 289 290 293 296 298 298 296 293 292 293 294 295 295 295 295 295 295 294 293 291 290 289 289 290 292 294 296 298
220 223 226 230 234 239 243 247 249 251 252 254 255 258 259 259 258 258 259 260 260 260 260 260 261 261 262 264 266 269 271 273 275 278 282 284 284 285 285 285 286 286 286 287 287 288 288 287 286 287 289 290 290 290 290 291 292 293 295 297 298 298 297 296 293 292 292 292 293 293 293 293 293 293 292 291 290 289 289 289 291 293 295 297 298
219 222 227 232 235 239 243 246 249 250 251 252 254 255 256 255 255 256 258 259 260 261 262 262 262 263 264 267 270 273 276 278 281 283 285 285 283 283 283 284 284 285 286 287 287 287 288 287 288 289 290 290 290 289 289 289 291 293 294 295 296 295 294 293 291 290 290 291 292 292 292 291 291 290 289 289 288 288 289 291 292 294 295 297 298
220 224 230 235 239 243 246 249 251 250 249 250 252 253 252 252 253 253 254 255 257 260 262 264 265 266 267 270 274 277 279 281 282 283 282 281 280 280 281 282 284 285 286 287 288 289 289 289 290 291 291 290 289 287 287 288 290 292 292 292 291 291 292 290 287 286 287 288 289 290 289 289 288 288 287 287 288 289 290 292 293 295 295 296 297
220 225 231 236 241 244 247 250 252 252 251 251 251 252 253 254 255 253 252 252 253 255 258 260 263 266 269 272 274 276 278 279 279 280 280 280 280 282 284 286 287 289 291 292 293 293 292 292 293 292 291 291 289 287 288 290 290 290 290 290 289 288 288 285 284 284 285 286 287 288 287 288 287 287 287 288 289 290 292 293 294 295 296 296 297
221 224 229 233 237 242 245 247 249 250 252 252 252 252 254 256 257 255 252 252 254 255 258 260 262 265 268 269 270 272 273 275 277 278 280 282 284 287 288 290 291 292 293 293 293 292 291 292 292 291 291 291 289 288 290 290 288 286 286 286 285 283 282 282 282 284 285 286 286 286 286 287 287 287 288 289 290 291 292 293 294 295 296 297 298
223 226 230 234 237 240 244 248 249 251 252 253 254 255 256 257 257 256 254 255 257 258 260 262 264 266 267 268 269 270 272 275 279 281 283 284 286 287 287 288 289 289 289 289 289 290 290 290 289 289 289 288 287 287 288 287 285 284 283 282 281 280 279 280 282 284 285 286 286 287 287 287 288 288 289 290 291 292 293 294 295 295 296 297 298
225 229 232 236 238 241 244 247 250 252 253 254 255 256 257 258 258 258 258 259 259 260 261 263 265 267 269 271 273 274 276 279 282 283 284 284 285 284 283 283 282 281 282 283 284 285 284 284 284 285 284 282 282 283 283 283 282 282 281 280 280 280 280 281 282 284 285 285 285 286 286 287 288 288 289 290 291 292 293 294 295 296 296 297 297
224 227 230 233 236 238 241 244 247 251 253 254 255 255 256 257 258 259 260 261 261 261 262 263 264 266 268 270 272 273 274 276 277 279 281 281 282 281 279 277 276 276 277 277 277 276 276 276 277 278 278 278 278 278 279 280 280 279 278 278 279 279 280 281 282 283 284 284 284 285 286 286 287 288 289 290 291 292 293 294 294 295 295 296 296
226 228 231 232 233 235 238 240 243 246 249 251 253 255 256 257 258 258 260 260 261 262 262 263 264 266 267 268 269 269 270 271 272 273 273 274 275 275 273 272 272 272 273 273 272 273 273 274 274 275 276 276 277 277 279 279 280 280 280 280 280 281 282 282 283 284 284 284 285 286 287 287 288 288 289 290 291 291 292 293 293 294 295 295 296
228 230 233 235 236 237 238 239 241 243 246 248 252 255 257 257 257 257 258 259 260 261 262 263 265 266 267 268 269 270 271 272 272 272 272 271 271 272 271 270 270 270 270 271 272 273 274 275 275 276 277 278 278 279 280 280 281 282 282 282 282 283 283 284 285 285 285 285 286 286 287 287 287 288 289 289 290 290 291 292 293 294 295 296 296
231 233 235 237 238 240 242 243 244 246 248 250 252 254 256 257 257 257 257 258 259 260 261 263 264 265 267 268 269 270 271 272 272 273 273 272 272 272 272 272 273 273 274 274 275 276 277 278 278 279 279 280 281 282 282 283 283 283 283 283 284 284 285 285 285 285 285 286 286 287 287 287 287 288 288 288 289 290 291 292 294 295 296 296 297
231 234 237 239 240 242 243 245 247 248 250 252 253 255 256 257 258 258 259 259 260 261 262 263 264 265 266 267 269 270 271 272 273 273 274 274 273 273 273 274 275 276 276 277 278 279 280 280 281 281 282 283 284 285 285 285 285 285 285 285 285 286 286 287 287 287 287 287 287 288 288 288 288 287 287 288 290 292 293 294 296 297 297 297 297
230 232 235 238 241 243 244 245 247 248 249 251 253 255 257 258 259 260 261 261 262 263 264 265 266 267 268 269 270 271 272 273 273 274 275 275 275 275 275 276 277 278 279 280 281 282 282 283 283 284 284 285 285 285 285 285 285 286 286 286 286 287 287 287 288 288 288 288 289 289 289 289 289 290 291 292 294 295 296 297 298 298 297 297 297
232 233 234 235 237 240 242 244 246 247 248 249 250 252 254 256 258 259 261 262 263 264 265 266 268 269 269 270 271 272 273 273 274 274 275 276 276 277 278 279 279 280 281 282 283 283 284 284 284 285 284 284 284 284 284 285 285 285 286 286 286 287 287 288 289 290 290 291 291 291 292 292 294 295 296 296 296 296 296 297 297 296 296 296 295
234 235 236 237 238 239 240 242 244 246 247 249 250 251 253 254 256 258 259 261 262 264 265 266 266 267 268 268 269 270 271 272 272 273 274 275 276 277 278 279 279 280 281 282 283 283 283 283 283 283 282 282 282 282 283 283 284 284 285 285 286 287 288 289 291 292 293 293 294 294 294 295 296 296 296 296 296 296 296 296 295 295 294 294 293
236 236 237 238 240 241 242 243 244 245 247 248 250 251 253 255 256 258 259 260 262 263 264 265 266 266 267 268 269 270 271 272 273 274 275 276 277 277 278 279 279 280 280 281 281 281 281 281 281 281 281 281 281 281 282 283 284 284 285 286 287 289 290 291 292 293 293 293 294 294 295 295 296 296 296 295 295 295 295 294 294 293 293 292 291
238 239 239 240 241 242 243 245 246 248 249 250 251 252 254 255 256 258 259 260 261 263 264 265 266 267 268 268 269 270 271 273 274 275 276 277 278 279 280 280 281 281 281 281 281 281 281 282 282 282 282 282 283 283 284 284 285 286 287 287 288 289 290 291 292 292 293 293 294 294 295 295 295 295 295 295 294 294 294 293 293 292 291 291 290
240 241 242 242 243 244 245 247 248 250 251 252 253 254 255 256 257 259 260 261 263 264 265 266 267 268 269 270 271 272 273 274 275 276 277 278 279 280 280 280 281 281 281 281 281 281 281 281 281 282 282 282 283 283 283 284 285 285 286 287 288 289 290 291 292 292 293 294 294 295 295 295 295 295 294 294 294 294 293 292 292 291 290 289 288
241 242 243 244 245 246 247 249 250 252 253 254 255 256 257 258 260 261 262 263 265 266 267 268 269 270 271 272 273 274 275 276 277 278 278 279 279 279 279 279 279 279 279 279 279 279 279 280 280 280 281 282 282 283 283 284 285 285 286 287 288 289 290 291 292 292 293 294 294 294 294 294 294 294 293 293 293 292 292 291 290 289 288 287 286
242 243 244 245 246 247 248 249 250 252 253 255 256 257 259 260 261 263 264 265 266 267 268 269 270 271 272 273 274 275 275 276 276 277 277 277 277 277 277 277 277 277 278 278 278 278 279 279 279 280 280 281 282 282 283 284 285 285 286 287 288 289 291 292 292 293 293 293 294 294 293 293 293 293 292 292 292 291 290 288 287 287 286 285 285
245 245 246 247 247 248 249 250 251 252 253 255 256 257 259 260 261 262 264 265 266 267 268 269 271 272 273 273 274 274 275 275 275 275 276 276 276 276 276 277 277 277 278 278 279 279 280 280 280 281 281 282 283 283 284 285 286 287 288 289 290 291 292 293 293 293 293 293 293 293 292 292 292 291 291 291 290 289 288 287 286 286 285 285 285
248 249 249 249 250 251 251 252 253 254 255 256 257 258 259 261 262 263 264 265 266 267 269 270 271 271 272 272 273 273 273 273 273 273 274 274 275 276 277 277 278 278 279 280 280 281 282 282 283 283 284 285 285 286 287 287 288 289 290 290 291 292 292 293 292 292 292 292 292 291 291 291 290 290 290 289 288 287 287 286 286 286 285 285 284
251 251 252 252 253 253 254 255 255 256 257 258 259 260 261 262 263 264 265 266 267 268 269 269 270 270 270 271 271 272 272 273 273 273 274 274 275 276 276 277 278 279 279 280 281 282 283 283 284 285 286 286 287 287 288 288 289 290 290 291 291 291 292 292 292 292 291 291 291 290 290 289 289 289 288 287 287 286 286 286 286 285 285 284 284
252 253 254 255 255 256 256 257 257 258 259 260 261 262 262 263 264 265 266 266 267 268 268 269 269 269 269 270 270 271 271 272 272 272 273 273 274 275 275 276 277 278 279 280 281 282 283 284 285 285 286 287 287 288 288 289 289 290 290 290 291 291 291 291 291 291 291 290 290 289 289 288 287 287 286 285 285 285 285 285 284 284 283 282 282
252 253 254 255 256 257 258 258 259 260 260 261 262 262 263 264 265 266 266 267 268 268 269 269 270 270 270 270 270 271 271 272 272 273 273 274 274 275 276 277 278 279 280 281 282 283 284 285 285 286 287 288 288 289 289 289 290 290 291 291 292 292 292 292 291 291 290 289 289 288 288 287 286 286 285 284 284 283 283 283 282 282 281 281 280
251 252 253 254 255 256 257 258 259 260 261 261 262 263 264 264 265 266 267 267 268 269 269 270 270 271 271 272 272 272 273 273 274 274 275 275 276 277 278 279 279 280 281 282 283 284 285 285 286 287 288 288 289 289 290 291 291 292 292 292 292 292 292 291 291 290 289 288 288 287 287 286 286 285 284 284 283 282 282 282 282 281 280 279 278
251 252 253 254 255 256 257 257 258 259 260 261 261 262 263 264 265 265 266 267 268 268 269 270 270 271 272 272 273 273 274 274 275 275 276 277 278 278 279 280 281 281 282 283 284 284 285 286 287 288 289 289 290 291 292 292 292 292 292 292 291 291 291 290 289 288 288 288 287 287 286 286 285 285 284 284 284 283 282 282 282 280 279 278 277
253 253 254 254 255 256 257 257 258 259 260 260 261 262 263 263 264 265 266 267 267 268 269 269 270 271 271 272 273 273 274 275 275 276 277 277 278 279 280 280 281 282 283 284 285 286 286 287 288 289 290 291 291 291 291 291 291 291 291 291 290 290 289 289 288 288 288 288 287 287 286 286 286 286 285 285 284 284 284 283 281 280 279 278 278
253 254 254 255 256 257 257 258 259 259 260 261 262 262 263 264 264 265 266 266 267 268 269 269 270 271 271 272 273 273 274 275 275 276 277 278 279 279 280 281 282 283 284 285 286 287 288 289 289 290 291 291 291 290 290 290 291 291 290 290 289 289 289 289 288 288 288 288 287 287 287 287 286 286 286 285 285 285 284 283 282 281 280 279 278
254 254 255 256 256 257 258 258 259 260 260 261 262 262 263 263 264 265 265 266 267 267 268 269 270 270 271 271 272 273 274 275 276 276 277 278 279 280 282 283 284 285 286 287 287 288 288 289 289 290 290 289 289 289 290 290 290 290 289 289 289 289 289 288 288 288 288 288 287 287 287 287 286 286 286 286 286 285 283 282 281 280 279 278 278
254 254 255 256 257 257 258 259 259 260 261 261 262 262 263 264 264 265 265 266 267 267 268 269 269 270 271 271 272 273 274 275 276 277 278 279 280 281 282 283 284 285 285 286 286 287 288 288 288 288 288 288 289 289 289 289 289 289 288 288 288 288 288 288 288 288 287 287 287 287 287 287 287 287 287 287 286 285 284 283 281 279 278 277 277
252 253 254 255 256 257 258 259 260 260 261 262 262 263 264 264 265 266 266 267 267 268 269 269 270 271 271 272 273 274 275 276 276 277 278 279 280 281 282 283 284 284 285 285 286 287 288 288 287 287 287 287 288 288 288 288 288 288 287 287 287 287 287 287 287 287 287 287 287 287 288 288 287 287 287 286 286 285 284 283 282 280 279 278 277
252 253 253 254 255 256 257 258 259 260 260 261 262 263 263 264 265 265 266 267 267 268 269 269 270 271 271 272 273 274 274 275 276 277 278 279 280 281 282 283 284 284 285 286 287 287 287 287 287 287 287 287 287 287 287 287 287 287 287 287 287 287 287 287 287 287 287 287 287 288 288 288 287 287 286 285 285 284 284 283 282 281 280 279 277
254 254 254 255 255 256 257 257 258 259 260 261 261 262 263 263 264 265 265 266 267 267 268 269 270 270 271 272 273 274 275 276 277 278 279 280 281 282 283 284 284 285 285 286 286 287 287 287 287 287 287 287 287 287 287 288 288 288 288 288 288 287 287 287 287 288 288 288 288 288 287 287 286 286 285 285 284 284 283 281 280 279 279 278 277
254 255 255 256 257 257 258 258 259 260 260 261 262 262 263 263 264 265 265 266 267 268 268 269 270 271 272 274 275 276 277 278 279 280 281 282 282 283 283 283 284 284 285 286 286 286 286 287 287 287 287 287 288 288 288 288 288 289 289 289 289 288 288 288 288 288 288 288 288 288 287 286 286 285 285 284 283 282 281 280 279 278 277 277 277
252 253 254 255 256 257 258 258 259 260 261 261 262 263 263 264 265 266 266 267 268 269 270 271 272 273 274 275 276 277 278 279 279 280 281 281 282 282 282 282 283 284 285 285 285 286 286 286 286 287 287 288 288 289 289 289 289 288 288 289 289 289 289 289 289 288 288 288 288 287 287 286 285 284 284 283 282 281 280 279 278 277 276 276 275
251 252 252 253 254 255 256 257 258 259 260 261 262 263 263 264 265 266 267 268 269 270 271 272 273 274 275 275 276 277 278 278 279 280 280 280 281 281 281 282 283 284 284 284 285 285 286 286 286 287 287 288 289 289 289 289 288 288 288 288 288 289 289 289 289 288 288 287 287 287 286 285 284 283 283 282 281 280 279 277 276 275 274 274 274
254 254 254 254 254 255 255 256 257 258 259 260 261 262 263 264 265 266 267 268 269 270 271 272 273 273 274 275 275 276 277 277 278 279 279 280 280 280 281 281 282 283 283 284 285 285 286 286 287 287 288 289 289 289 289 289 289 289 289 288 289 289 289 289 289 288 287 287 286 286 285 284 283 282 281 280 279 278 277 276 275 274 273 273 272
255 255 255 256 256 257 257 258 258 259 260 260 261 262 263 264 265 266 267 268 269 270 270 271 272 272 273 274 274 275 276 277 278 278 279 279 279 280 281 282 282 283 283 284 285 285 286 287 288 289 290 290 291 291 291 291 290 290 290 290 289 289 289 288 288 288 287 287 286 285 284 284 282 281 280 279 278 277 276 275 274 274 273 273 272
256 256 256 257 257 257 258 258 259 259 260 261 261 262 263 264 265 266 266 267 268 269 270 270 271 272 272 273 274 275 276 277 278 278 279 279 279 280 281 282 282 283 283 284 284 285 287 288 289 290 290 291 292 292 292 292 291 291 291 290 290 289 289 288 287 287 286 286 285 284 283 282 281 280 279 278 277 276 275 275 274 274 274 273 272
Height
10633 10634 10636 10637 10637 10637 10638 10639 10640 10639 10638 10639 10641 10643 10643 10644 10643 10642 10642 10642 10642 10643 10644 10645 10647 10648 10650 10650 10651 10651 10652 10652 10652 10652 10653 10652 10653 10653 10653 10654 10654 10654 10654 10654 10654 10654 10654 10653 10653 10653 10652 10651 10651 10650 10650 10649 10649 10648 10647 10647 10646 10645 10643 10642 10641 10640 10639 10638 10637 10636 10635 10633 10631 10630 10628 10626 10625 10624 10623 10622 10620 10618 10617 10615 10614
10630 10632 10634 10635 10634 10635 10635 10635 10635 10635 10635 10636 10638 10639 10638 10639 10638 10638 10638 10638 10638 10639 10640 10641 10643 10644 10645 10646 10647 10647 10647 10647 10648 10648 10648 10648 10648 10648 10648 10649 10649 10649 10649 10649 10649 10650 10650 10649 10649 10649 10648 10648 10647 10646 10646 10645 10645 10644 10643 10643 10642 10641 10640 10638 10637 10636 10635 10634 10633 10632 10630 10628 10627 10625 10623 10621 10620 10619 10618 10616 10615 10613 10611 10609 10608
10629 10630 10632 10632 10631 10632 10632 10631 10630 10630 10631 10632 10633 10633 10633 10634 10634 10635 10635 10635 10635 10635 10636 10638 10639 10640 10641 10642 10643 10643 10643 10643 10643 10643 10643 10643 10643 10644 10644 10644 10644 10644 10644 10645 10645 10645 10645 10645 10645 10645 10644 10644 10643 10642 10642 10641 10641 10640 10639 10638 10637 10636 10635 10634 10632 10631 10630 10629 10628 10627 10625 10623 10622 10620 10618 10617 10615 10613 10612 10610 10609 10606 10604 10602 10601
10628 10628 10628 10628 10627 10627 10626 10626 10626 10626 10626 10627 10627 10628 10628 10629 10630 10631 10631 10631 10631 10632 10633 10634 10635 10636 10636 10637 10638 10639 10639 10639 10639 10638 10638 10638 10638 10639 10639 10639 10640 10640 10640 10640 10640 10641 10641 10641 10641 10640 10639 10639 10638 10638 10637 10637 10636 10635 10634 10633 10632 10631 10629 10628 10627 10626 10625 10623 10622 10621 10619 10618 10617 10615 10613 10612 10610 10608 10606 10604 10602 10600 10598 10596 10593
10627 10625 10622 10620 10620 10622 10623 10625 10625 10623 10622 10623 10623 10624 10625 10625 10625 10626 10627 10627 10627 10628 10629 10630 10631 10631 10631 10632 10633 10633 10634 10634 10634 10634 10634 10633 10633 10634 10634 10635 10635 10635 10635 10635 10636 10636 10636 10636 10636 10635 10635 10634 10634 10633 10632 10631 10630 10629 10628 10627 10626 10625 10623 10621 10621 10620 10618 10617 10616 10615 10613 10612 10611 10609 10608 10606 10603 10602 10600 10598 10596 10593 10591 10589 10586
10624 10618 10612 10612 10616 10620 10623 10624 10623 10619 10618 10619 10620 10620 10620 10620 10621 10621 10622 10622 10622 10623 10625 10626 10626 10626 10626 10627 10628 10628 10629 10629 10629 10629 10629 10629 10629 10629 10629 10630 10630 10630 10631 10631 10631 10631 10630 10630 10631 10630 10630 10629 10629 10628 10627 10626 10625 10623 10622 10621 10620 10618 10617 10615 10614 10613 10612 10611 10610 10609 10607 10605 10604 10603 10601 10599 10596 10595 10593 10592 10590 10587 10585 10583 10580
10617 10608 10605 10610 10615 10618 10618 10618 10617 10614 10613 10614 10614 10614 10615 10615 10615 10616 10616 10617 10618 10619 10620 10621 10621 10621 10621 10622 10623 10623 10623 10624 10624 10624 10624 10624 10624 10624 10625 10625 10625 10625 10626 10626 10626 10626 10626 10626 10626 10625 10625 10624 10624 10623 10622 10620 10619 10617 10616 10614 10613 10612 10611 10609 10608 10607 10606 10605 10604 10603 10601 10599 10597 10596 10594 10592 10590 10588 10587 10585 10583 10582 10580 10577 10575
10608 10601 10604 10609 10610 10610 10610 10610 10610 10609 10609 10609 10609 10608 10609 10609 10610 10610 10611 10612 10613 10613 10614 10614 10615 10616 10616 10617 10617 10618 10618 10618 10619 10619 10619 10619 10619 10619 10620 10620 10620 10620 10621 10621 10621 10621 10621 10620 10620 10620 10619 10619 10618 10617 10616 10614 10613 10611 10609 10608 10606 10605 10604 10603 10602 10600 10599 10598 10597 10596 10594 10592 10589 10588 10587 10585 10583 10581 10580 10578 10576 10575 10574 10571 10568
10600 10598 10602 10605 10603 10603 10604 10605 10605 10604 10604 10603 10603 10603 10603 10604 10605 10606 10607 10607 10608 10609 10609 10609 10610 10610 10611 10612 10612 10612 10612 10613 10613 10614 10614 10614 10614 10615 10615 10615 10615 10615 10615 10615 10615 10615 10615 10614 10614 10613 10613 10612 10612 10610 10609 10608 10607 10605 10603 10602 10600 10598 10597 10596 10594 10593 10591 10590 10589 10587 10586 10583 10582 10580 10579 10577 10576 10574 10573 10571 10569 10567 10566 10564 10561
10594 10595 10600 10601 10599 10599 10599 10599 10599 10598 10598 10598 10598 10598 10599 10600 10601 10601 10602 10603 10603 10604 10605 10605 10605 10605 10606 10606 10607 10607 10607 10608 10609 10609 10609 10609 10609 10609 10610 10610 10610 10610 10610 10609 10609 10609 10608 10608 10607 10607 10607 10606 10605 10604 10603 10602 10601 10599 10597 10595 10594 10592 10590 10588 10586 10585 10583 10581 10580 10579 10577 10576 10574 10573 10572 10570 10569 10567 10566 10564 10562 10560 10558 10556 10553
10589 10591 10595 10596 10595 10595 10594 10593 10592 10592 10593 10593 10593 10593 10594 10595 10597 10596 10596 10598 10599 10599 10600 10600 10600 10601 10601 10601 10601 10601 10602 10603 10604 10603 10604 10604 10603 10603 10604 10604 10604 10603 10603 10603 10603 10602 10602 10601 10601 10601 10601 10600 10599 10598 10597 10595 10594 10592 10590 10588 10586 10584 10582 10580 10578 10577 10575 10574 10572 10571 10569 10568 10567 10566 10564 10563 10562 10561 10559 10557 10555 10553 10550 10548 10545
10584 10586 10588 10588 10588 10588 10588 10587 10586 10587 10587 10587 10588 10589 10589 10590 10591 10590 10590 10592 10593 10593 10594 10595 10595 10596 10595 10595 10595 10596 10597 10598 10597 10597 10597 10597 10596 10596 10596 10596 10596 10596 10596 10596 10596 10596 10596 10596 10595 10594 10593 10592 10591 10589 10588 10587 10585 10583 10581 10580 10578 10576 10575 10573 10571 10569 10568 10566 10565 10563 10561 10559 10559 10557 10556 10555 10554 10552 10551 10549 10547 10545 10543 10541 10537
10579 10581 10582 10581 10582 10582 10582 10582 10581 10582 10582 10582 10583 10584 10584 10584 10585 10585 10586 10586 10587 10587 10588 10589 10590 10590 10590 10590 10589 10590 10590 10591 10591 10591 10590 10590 10590 10590 10590 10590 10590 10590 10591 10591 10591 10591 10590 10589 10589 10588 10586 10584 10582 10580 10579 10578 10577 10576 10574 10572 10571 10569 10567 10564 10562 10561 10560 10559 10557 10555 10553 10552 10551 10549 10547 10547 10545 10543 10541 10539 10538 10536 10533 10533 10529
10575 10576 10576 10576 10576 10576 10577 10577 10576 10577 10578 10578 10578 10579 10578 10579 10580 10581 10582 10582 10582 10582 10582 10583 10583 10584 10584 10584 10584 10584 10584 10584 10585 10585 10584 10584 10584 10584 10585 10585 10585 10584 10584 10584 10584 10584 10583 10582 10581 10580 10579 10577 10574 10572 10572 10572 10571 10569 10568 10567 10565 10563 10560 10556 10554 10553 10553 10552 10550 10548 10546 10544 10543 10541 10539 10538 10536 10534 10531 10529 10528 10525 10523 10522 10520
10570 10571 10571 10571 10571 10571 10572 10571 10570 10571 10572 10573 10574 10574 10574 10574 10576 10577 10577 10577 10577 10577 10577 10577 10577 10577 10578 10578 10578 10578 10578 10579 10579 10579 10579 10578 10577 10577 10578 10578 10577 10577 10576 10575 10575 10575 10574 10573 10573 10572 10572 10570 10566 10564 10566 10567 10566 10563 10562 10561 10559 10556 10553 10549 10547 10546 10546 10545 10544 10541 10538 10536 10535 10532 10530 10528 10525 10523 10521 10518 10516 10513 10511 10510 10508
10565 10566 10566 10567 10567 10567 10567 10566 10565 10565 10566 10568 10568 10569 10569 10569 10571 10572 10572 10571 10571 10571 10572 10572 10572 10572 10572 10573 10574 10574 10573 10573 10573 10573 10573 10572 10571 10570 10569 10568 10568 10567 10566 10565 10565 10565 10565 10565 10565 10564 10564 10562 10559 10557 10559 10562 10561 10558 10556 10555 10553 10550 10545 10540 10538 10538 10538 10537 10536 10534 10530 10528 10525 10523 10520 10518 10514 10512 10510 10508 10504 10500 10499 10498 10495
10560 10561 10562 10562 10562 10562 10561 10560 10559 10560 10561 10561 10561 10562 10562 10563 10565 10566 10566 10565 10566 10566 10567 10567 10566 10566 10566 10567 10568 10569 10568 10568 10567 10567 10567 10565 10564 10563 10562 10561 10560 10558 10558 10557 10557 10557 10557 10556 10556 10557 10556 10555 10552 10551 10553 10555 10555 10553 10550 10549 10547 10544 10540 10535 10531 10530 10530 10528 10526 10524 10521 10518 10515 10512 10509 10506 10503 10500 10499 10497 10493 10488 10487 10486 10482
10553 10555 10556 10555 10555 10555 10555 10555 10554 10553 10554 10554 10555 10555 10555 10556 10557 10559 10559 10560 10560 10561 10561 10561 10561 10560 10560 10560 10561 10561 10561 10560 10560 10560 10560 10559 10559 10558 10557 10556 10554 10553 10553 10552 10551 10552 10551 10550 10550 10551 10550 10548 10546 10545 10546 10547 10548 10547 10545 10542 10539 10537 10535 10531 10526 10523 10522 10520 10518 10515 10512 10508 10505 10502 10498 10495 10491 10488 10487 10486 10482 10477 10475 10474 10471
10546 10547 10547 10547 10547 10548 10549 10549 10548 10548 10547 10548 10548 10549 10549 10550 10551 10552 10553 10554 10554 10554 10555 10555 10555 10555 10555 10555 10555 10555 10555 10554 10554 10554 10554 10553 10553 10553 10551 10550 10549 10548 10548 10548 10547 10547 10546 10546 10545 10544 10543 10542 10539 10538 10538 10538 10539 10539 10537 10535 10531 10528 10527 10524 10520 10517 10514 10511 10508 10506 10503 10500 10496 10492 10489 10485 10481 10478 10476 10474 10471 10467 10464 10462 10459
10539 10540 10541 10540 10541 10541 10542 10542 10542 10542 10542 10541 10541 10541 10543 10545 10546 10546 10546 10547 10547 10548 10548 10548 10548 10549 10549 10550 10549 10549 10549 10549 10549 10549 10549 10548 10548 10547 10546 10544 10543 10542 10542 10542 10541 10540 10540 10540 10539 10535 10534 10533 10531 10529 10528 10528 10527 10526 10524 10523 10521 10519 10517 10514 10511 10508 10505 10501 10498 10495 10493 10490 10486 10482 10479 10477 10472 10468 10465 10463 10460 10457 10453 10449 10447
10533 10534 10534 10535 10535 10535 10535 10535 10536 10535 10535 10536 10535 10536 10536 10538 10539 10540 10540 10540 10540 10541 10541 10541 10542 10542 10542 10542 10542 10542 10542 10542 10542 10542 10542 10542 10542 10541 10540 10537 10535 10535 10536 10535 10534 10533 10532 10533 10532 10527 10523 10522 10520 10519 10519 10518 10517 10514 10511 10509 10508 10506 10505 10503 10500 10496 10493 10491 10487 10484 10482 10479 10475 10472 10469 10467 10464 10460 10455 10451 10448 10446 10442 10438 10434
10526 10527 10528 10528 10529 10529 10529 10529 10530 10530 10530 10530 10530 10530 10530 10531 10532 10533 10533 10533 10534 10534 10534 10534 10535 10535 10535 10535 10535 10534 10534 10533 10533 10533 10534 10534 10533 10533 10532 10528 10525 10525 10526 10526 10525 10524 10523 10523 10522 10517 10513 10510 10509 10507 10506 10506 10506 10503 10500 10497 10494 10492 10491 10490 10487 10483 10479 10477 10474 10472 10470 10466 10464 10462 10460 10458 10456 10450 10443 10440 10438 10434 10431 10427 10423
10518 10519 10520 10521 10522 10523 10523 10523 10523 10524 10524 10524 10524 10524 10524 10524 10525 10526 10526 10526 10527 10527 10527 10527 10527 10528 10527 10527 10526 10526 10526 10524 10524 10524 10524 10524 10524 10524 10523 10520 10517 10515 10515 10515 10515 10513 10512 10511 10509 10506 10502 10499 10497 10494 10492 10490 10489 10488 10485 10482 10480 10478 10476 10474 10472 10469 10466 10463 10460 10458 10456 10452 10450 10448 10448 10450 10449 10438 10429 10428 10427 10422 10418 10414 10410
10510 10511 10513 10513 10514 10515 10516 10516 10516 10517 10517 10517 10517 10516 10516 10517 10517 10517 10518 10518 10518 10519 10518 10519 10519 10519 10519 10519 10518 10517 10517 10516 10515 10514 10513 10513 10513 10513 10512 10511 10508 10506 10504 10503 10503 10501 10499 10498 10496 10493 10491 10488 10485 10482 10479 10477 10475 10472 10470 10468 10466 10464 10462 10460 10458 10455 10453 10450 10446 10444 10442 10439 10436 10433 10431 10434 10435 10425 10416 10416 10415 10409 10405 10402 10398
10503 10504 10505 10506 10506 10507 10508 10508 10509 10509 10509 10510 10510 10510 10509 10509 10509 10509 10509 10509 10509 10510 10510 10510 10510 10509 10509 10509 10508 10507 10507 10506 10505 10504 10502 10502 10502 10501 10501 10500 10498 10496 10494 10492 10491 10489 10486 10484 10483 10481 10479 10476 10473 10470 10467 10464 10462 10459 10457 10455 10453 10451 10449 10447 10445 10442 10440 10436 10432 10429 10427 10424 10424 10421 10416 10414 10415 10412 10408 10405 10401 10396 10393 10390 10386
10495 10496 10497 10498 10499 10499 10500 10501 10501 10501 10501 10502 10502 10502 10502 10501 10501 10501 10501 10501 10501 10501 10501 10501 10501 10500 10500 10500 10499 10498 10498 10497 10496 10494 10493 10493 10493 10492 10491 10489 10488 10485 10484 10483 10480 10477 10475 10473 10471 10469 10467 10465 10461 10458 10456 10453 10450 10448 10445 10442 10441 10439 10437 10434 10432 10429 10427 10422 10418 10415 10412 10410 10411 10410 10404 10398 10397 10397 10396 10392 10387 10383 10381 10377 10373
10486 10488 10489 10490 10491 10491 10491 10492 10492 10492 10493 10493 10493 10493 10493 10493 10493 10493 10492 10492 10492 10492 10492 10492 10491 10491 10491 10490 10490 10489 10489 10488 10487 10485 10484 10484 10483 10482 10481 10479 10478 10475 10474 10473 10470 10467 10464 10462 10460 10458 10456 10454 10451 10448 10445 10442 10439 10437 10434 10431 10428 10426 10425 10422 10419 10416 10413 10409 10404 10401 10399 10397 10397 10396 10390 10384 10382 10382 10380 10376 10372 10369 10367 10363 10359
10477 10479 10480 10481 10482 10482 10482 10483 10483 10483 10484 10484 10485 10485 10485 10484 10484 10484 10483 10483 10483 10483 10482 10482 10482 10481 10481 10481 10480 10480 10480 10479 10477 10475 10474 10472 10471 10470 10469 10467 10465 10463 10461 10459 10458 10455 10452 10449 10447 10445 10443 10441 10439 10436 10433 10430 10427 10424 10421 10418 10415 10413 10412 10411 10408 10402 10398 10395 10391 10387 10385 10383 10381 10379 10374 10370 10367 10366 10363 10359 10356 10353 10350 10347 10344
10468 10469 10470 10471 10473 10474 10474 10474 10474 10474 10475 10475 10475 10475 10475 10475 10475 10474 10474 10474 10473 10473 10473 10472 10472 10471 10471 10471 10470 10469 10470 10468 10466 10465 10464 10462 10460 10458 10456 10454 10452 10450 10448 10446 10444 10442 10440 10438 10435 10433 10431 10429 10427 10424 10421 10418 10415 10412 10408 10406 10403 10400 10399 10399 10397 10389 10383 10379 10377 10372 10369 10367 10365 10363 10358 10354 10352 10351 10347 10343 10340 10337 10333 10330 10327
10459 10460 10460 10461 10463 10464 10465 10465 10465 10465 10465 10465 10465 10465 10466 10465 10465 10465 10464 10464 10464 10463 10462 10462 10461 10460 10460 10459 10459 10458 10458 10456 10454 10453 10452 10450 10448 10446 10444 10443 10441 10439 10437 10436 10434 10432 10430 10427 10425 10422 10420 10417 10414 10412 10408 10405 10401 10398 10395 10392 10389 10385 10384 10385 10384 10377 10369 10366 10362 10358 10353 10350 10348 10346 10342 10338 10337 10336 10332 10328 10325 10322 10318 10314 10311
10449 10450 10450 10451 10453 10454 10454 10454 10455 10455 10454 10455 10455 10455 10455 10455 10455 10454 10454 10454 10453 10453 10452 10451 10450 10450 10449 10448 10447 10447 10446 10445 10444 10442 10440 10439 10437 10435 10434 10432 10430 10428 10427 10425 10424 10422 10419 10417 10414 10411 10409 10406 10403 10400 10397 10393 10389 10386 10382 10379 10376 10372 10370 10371 10369 10362 10355 10352 10349 10344 10339 10335 10331 10329 10326 10323 10320 10319 10315 10312 10309 10306 10303 10300 10296
10437 10438 10439 10441 10442 10443 10443 10444 10444 10444 10444 10444 10444 10445 10445 10445 10445 10444 10443 10443 10443 10442 10441 10440 10440 10439 10438 10437 10436 10435 10434 10433 10432 10430 10429 10427 10426 10424 10423 10421 10419 10417 10415 10413 10412 10410 10407 10405 10402 10399 10396 10394 10391 10388 10384 10380 10377 10373 10369 10365 10362 10357 10356 10356 10353 10346 10341 10338 10335 10330 10325 10320 10316 10313 10311 10308 10305 10301 10299 10296 10295 10293 10290 10286 10283
10426 10427 10428 10429 10431 10432 10432 10433 10433 10434 10434 10434 10434 10435 10435 10434 10434 10433 10432 10432 10432 10432 10431 10430 10429 10428 10427 10426 10424 10423 10422 10421 10420 10419 10417 10415 10414 10412 10411 10409 10406 10404 10402 10400 10398 10396 10393 10391 10388 10385 10382 10380 10377 10373 10369 10365 10362 10358 10354 10351 10347 10343 10341 10340 10336 10331 10327 10323 10319 10314 10310 10306 10302 10300 10297 10293 10290 10287 10284 10282 10281 10280 10278 10274 10271
10415 10416 10417 10418 10419 10421 10422 10422 10422 10423 10423 10423 10423 10423 10423 10423 10422 10422 10421 10420 10420 10420 10420 10419 10418 10417 10416 10414 10413 10412 10411 10410 10408 10407 10405 10403 10402 10400 10398 10396 10394 10391 10389 10387 10384 10381 10379 10376 10373 10370 10368 10365 10363 10359 10354 10349 10346 10343 10340 10337 10332 10329 10327 10324 10320 10316 10312 10307 10302 10299 10295 10291 10289 10287 10283 10280 10276 10274 10272 10270 10269 10268 10266 10262 10260
10404 10405 10406 10407 10408 10409 10410 10411 10411 10411 10412 10412 10412 10411 10411 10410 10410 10410 10410 10409 10408 10408 10408 10407 10406 10405 10404 10403 10402 10401 10399 10398 10396 10395 10393 10391 10389 10387 10385 10383 10381 10378 10376 10374 10371 10368 10365 10362 10359 10356 10353 10350 10347 10344 10339 10335 10331 10328 10325 10322 10318 10314 10311 10308 10304 10300 10296 10291 10287 10284 10281 10278 10276 10274 10271 10267 10265 10263 10261 10259 10258 10257 10255 10252 10250
10393 10394 10395 10396 10397 10397 10398 10399 10399 10399 10400 10400 10400 10400 10399 10398 10398 10397 10397 10397 10396 10396 10395 10393 10392 10392 10391 10390 10389 10388 10386 10385 10383 10382 10380 10378 10376 10374 10373 10370 10368 10365 10363 10360 10357 10354 10351 10348 10345 10341 10338 10335 10332 10329 10325 10321 10317 10313 10310 10306 10302 10298 10294 10291 10288 10284 10281 10277 10274 10271 10268 10264 10262 10261 10259 10257 10255 10253 10251 10249 10247 10246 10244 10242 10240
10382 10383 10384 10385 10386 10386 10387 10387 10387 10388 10388 10388 10389 10388 10388 10387 10386 10385 10385 10384 10384 10384 10382 10380 10379 10378 10377 10376 10376 10374 10373 10371 10369 10368 10366 10364 10362 10360 10358 10356 10354 10352 10349 10346 10343 10340 10337 10334 10331 10327 10324 10321 10317 10313 10309 10305 10302 10298 10294 10290 10286 10283 10279 10276 10273 10269 10266 10264 10262 10259 10255 10253 10251 10249 10248 10246 10245 10243 10241 10239 10237 10235 10234 10232 10230
10372 10373 10373 10374 10375 10375 10375 10375 10375 10376 10377 10377 10377 10377 10376 10376 10375 10374 10373 10373 10372 10371 10370 10369 10368 10366 10364 10363 10362 10361 10359 10358 10356 10354 10352 10350 10348 10346 10344 10342 10340 10338 10335 10333 10330 10327 10323 10320 10317 10313 10310 10306 10301 10297 10294 10290 10286 10283 10279 10275 10272 10269 10265 10262 10259 10256 10254 10252 10250 10248 10245 10242 10240 10239 10237 10235 10234 10233 10231 10230 10228 10226 10224 10223 10221
10360 10361 10362 10363 10363 10364 10364 10364 10364 10364 10365 10365 10365 10365 10364 10364 10363 10363 10362 10361 10360 10359 10358 10357 10356 10355 10353 10351 10350 10348 10347 10345 10343 10341 10339 10337 10335 10333 10331 10329 10326 10324 10322 10319 10317 10314 10310 10306 10303 10299 10295 10291 10287 10283 10279 10275 10272 10269 10266 10262 10259 10256 10253 10250 10247 10245 10243 10241 10239 10237 10235 10232 10230 10228 10227 10225 10224 10223 10222 10220 10218 10216 10215 10214 10213
10348 10349 10350 10351 10351 10352 10352 10352 10352 10352 10352 10353 10353 10353 10352 10352 10351 10351 10350 10349 10348 10347 10346 10345 10344 10343 10341 10339 10337 10336 10334 10332 10330 10328 10326 10324 10322 10320 10317 10315 10313 10310 10308 10305 10302 10299 10296 10292 10288 10285 10281 10277 10273 10269 10265 10262 10259 10256 10253 10250 10246 10244 10241 10239 10236 10234 10232 10230 10228 10226 10225 10222 10220 10218 10217 10215 10214 10214 10213 10211 10209 10207 10206 10205 10205
10335 10336 10336 10338 10338 10339 10339 10339 10339 10339 10339 10339 10339 10339 10339 10339 10339 10338 10337 10336 10335 10335 10334 10332 10331 10330 10328 10327 10325 10323 10322 10320 10317 10315 10313 10311 10309 10306 10304 10301 10298 10296 10293 10290 10288 10285 10282 10279 10276 10272 10268 10264 10260 10256 10253 10250 10248 10245 10242 10239 10236 10233 10231 10229 10226 10225 10222 10220 10218 10216 10215 10213 10211 10209 10208 10206 10205 10204 10204 10203 10201 10200 10199 10197 10197
10322 10323 10324 10324 10325 10325 10325 10325 10325 10325 10325 10325 10326 10326 10326 10325 10325 10324 10323 10323 10322 10322 10321 10320 10318 10317 10315 10314 10313 10311 10309 10307 10305 10303 10301 10298 10296 10294 10291 10288 10285 10283 10280 10277 10274 10272 10270 10268 10264 10260 10256 10252 10248 10245 10242 10240 10238 10235 10233 10230 10227 10224 10222 10220 10217 10215 10213 10211 10209 10207 10206 10204 10202 10201 10199 10198 10196 10195 10195 10195 10194 10192 10192 10191 10190
10310 10310 10311 10311 10312 10312 10312 10312 10312 10312 10312 10312 10312 10312 10312 10312 10311 10310 10309 10309 10309 10308 10307 10306 10305 10304 10303 10302 10300 10299 10297 10295 10293 10291 10289 10287 10284 10282 10279 10276 10274 10270 10267 10263 10261 10260 10259 10256 10252 10248 10245 10242 10238 10235 10233 10230 10228 10226 10223 10221 10218 10216 10214 10211 10209 10207 10205 10203 10201 10199 10197 10196 10194 10192 10191 10190 10188 10187 10187 10186 10185 10185 10184 10184 10184
10296 10297 10298 10299 10299 10300 10300 10299 10299 10299 10299 10299 10299 10300 10299 10299 10298 10297 10297 10296 10296 10295 10294 10293 10292 10291 10290 10289 10287 10286 10284 10283 10281 10279 10278 10275 10273 10270 10268 10265 10261 10257 10254 10251 10249 10248 10246 10244 10241 10238 10235 10232 10230 10227 10224 10222 10219 10216 10214 10212 10210 10208 10206 10203 10201 10199 10197 10195 10193 10191 10190 10188 10187 10185 10184 10182 10181 10180 10180 10179 10178 10177 10177 10177 10177
10284 10284 10285 10286 10287 10287 10287 10288 10287 10287 10287 10287 10287 10287 10287 10286 10285 10284 10284 10283 10282 10281 10280 10280 10279 10278 10277 10276 10275 10274 10272 10271 10269 10267 10265 10263 10261 10259 10256 10253 10249 10246 10243 10241 10239 10237 10235 10233 10231 10228 10225 10223 10221 10218 10215 10213 10210 10208 10205 10203 10201 10200 10198 10196 10193 10191 10189 10187 10186 10184 10183 10181 10179 10178 10177 10176 10175 10174 10173 10173 10172 10171 10170 10170 10170
10271 10271 10272 10273 10274 10274 10275 10275 10275 10274 10274 10274 10274 10274 10273 10273 10272 10271 10271 10270 10269 10268 10268 10267 10266 10266 10265 10264 10263 10262 10261 10259 10257 10256 10254 10252 10250 10248 10245 10242 10239 10236 10234 10231 10229 10227 10225 10223 10221 10218 10216 10214 10212 10210 10207 10204 10202 10199 10197 10195 10193 10191 10190 10188 10186 10184 10181 10180 10178 10177 10176 10174 10173 10171 10170 10169 10169 10168 10167 10166 10166 10165 10165 10164 10164
10258 10259 10260 10260 10261 10261 10261 10262 10261 10261 10261 10261 10261 10261 10260 10259 10259 10259 10258 10257 10257 10256 10256 10255 10254 10254 10253 10252 10251 10250 10249 10248 10246 10245 10243 10241 10239 10237 10234 10232 10230 10228 10225 10222 10220 10218 10216 10214 10212 10209 10207 10205 10203 10201 10199 10196 10194 10192 10189 10187 10185 10183 10182 10181 10179 10177 10175 10173 10172 10170 10169 10168 10167 10165 10164 10163 10162 10162 10161 10160 10160 10160 10159 10159 10159
10246 10247 10247 10248 10248 10249 10249 10249 10249 10249 10249 10249 10248 10248 10248 10247 10247 10247 10246 10246 10245 10245 10244 10244 10243 10242 10242 10241 10240 10239 10238 10237 10236 10235 10233 10231 10229 10227 10224 10223 10222 10220 10217 10214 10211 10209 10207 10205 10203 10201 10199 10197 10195 10194 10191 10189 10186 10185 10182 10180 10178 10176 10175 10173 10172 10171 10169 10167 10166 10165 10163 10162 10161 10159 10158 10157 10157 10156 10156 10155 10155 10154 10154 10154 10153
10235 10235 10235 10236 10237 10237 10237 10237 10238 10238 10237 10237 10237 10237 10236 10236 10236 10236 10235 10235 10235 10234 10234 10233 10233 10232 10231 10231 10230 10230 10229 10228 10227 10225 10224 10222 10219 10217 10215 10215 10214 10212 10209 10206 10204 10201 10199 10196 10195 10193 10191 10189 10187 10186 10184 10181 10179 10177 10175 10173 10172 10170 10168 10167 10165 10164 10163 10162 10161 10159 10158 10156 10155 10154 10153 10152 10151 10151 10150 10150 10150 10149 10149 10149 10148
10223 10223 10224 10225 10225 10226 10227 10227 10227 10227 10227 10226 10226 10226 10226 10226 10226 10225 10225 10225 10225 10224 10224 10223 10223 10222 10222 10221 10221 10220 10220 10219 10218 10216 10214 10212 10210 10208 10207 10206 10206 10204 10202 10199 10197 10194 10191 10189 10186 10185 10183 10182 10180 10178 10176 10174 10172 10170 10169 10167 10165 10164 10162 10161 10159 10158 10157 10156 10155 10154 10152 10151 10150 10149 10148 10147 10146 10146 10145 10145 10144 10144 10144 10143 10143
10213 10213 10214 10214 10215 10216 10216 10216 10216 10216 10216 10216 10216 10216 10216 10216 10216 10216 10216 10216 10215 10215 10214 10214 10213 10213 10212 10212 10212 10211 10211 10210 10209 10207 10205 10203 10201 10200 10199 10198 10197 10196 10194 10192 10190 10187 10184 10182 10179 10177 10176 10174 10173 10171 10169 10167 10165 10164 10162 10161 10159 10158 10156 10155 10154 10153 10152 10151 10150 10149 10147 10146 10145 10144 10143 10142 10141 10140 10140 10140 10139 10139 10138 10138 10138